Wetterdaten: aktuell Sonntag, 30.10.2022 12:00
Datum Zeit Lufttemp. Wassertemp. Feuchte Luftdruck Regen Wind Richtung Richtung Windben
30.10.2022 12:00 19,1 C 0,0 C 65 % 1024,5 hPa 0,0 l/m 0,0 kts (0 Bft) N 355 0,0 kts (0 Bft)
30.10.2022 11:59 19,0 C 0,0 C 65 % 1024,5 hPa 0,0 l/m 0,1 kts (0 Bft) N 355 1,0 kts (1 Bft)
30.10.2022 11:58 19,0 C 0,0 C 65 % 1024,5 hPa 0,0 l/m 0,0 kts (0 Bft) N 355 0,0 kts (0 Bft)
30.10.2022 11:57 19,0 C 0,0 C 65 % 1024,5 hPa 0,0 l/m 0,0 kts (0 Bft) N 355 0,0 kts (0 Bft)
30.10.2022 11:56 18,9 C 0,0 C 65 % 1024,5 hPa 0,0 l/m 0,0 kts (0 Bft) N 355 0,0 kts (0 Bft)
30.10.2022 11:55 19,0 C 0,0 C 64 % 1024,5 hPa 0,0 l/m 0,0 kts (0 Bft) N 355 0,0 kts (0 Bft)
30.10.2022 11:54 19,0 C 0,0 C 64 % 1024,6 hPa 0,0 l/m 0,0 kts (0 Bft) N 355 0,0 kts (0 Bft)
30.10.2022 11:53 18,9 C 0,0 C 64 % 1024,6 hPa 0,0 l/m 0,0 kts (0 Bft) N 355 0,0 kts (0 Bft)
30.10.2022 11:52 18,9 C 0,0 C 65 % 1024,6 hPa 0,0 l/m 0,0 kts (0 Bft) N 355 0,0 kts (0 Bft)
30.10.2022 11:51 18,9 C 0,0 C 65 % 1024,7 hPa 0,0 l/m 0,0 kts (0 Bft) N 355 0,0 kts (0 Bft)
30.10.2022 11:50 18,8 C 0,0 C 66 % 1024,7 hPa 0,0 l/m 0,0 kts (0 Bft) N 355 0,0 kts (0 Bft)
30.10.2022 11:49 18,8 C 0,0 C 66 % 1024,7 hPa 0,0 l/m 0,0 kts (0 Bft) N 355 0,0 kts (0 Bft)
30.10.2022 11:48 18,7 C 0,0 C 66 % 1024,7 hPa 0,0 l/m 0,0 kts (0 Bft) N 355 0,0 kts (0 Bft)
30.10.2022 11:47 18,7 C 0,0 C 65 % 1024,7 hPa 0,0 l/m 0,0 kts (0 Bft) N 355 0,0 kts (0 Bft)
30.10.2022 11:46 18,7 C 0,0 C 66 % 1024,7 hPa 0,0 l/m 0,0 kts (0 Bft) N 355 0,0 kts (0 Bft)
30.10.2022 11:45 18,7 C 0,0 C 65 % 1024,7 hPa 0,0 l/m 0,3 kts (0 Bft) N 355 1,0 kts (1 Bft)
30.10.2022 11:44 18,7 C 0,0 C 65 % 1024,8 hPa 0,0 l/m 0,6 kts (1 Bft) N 355 1,0 kts (1 Bft)
30.10.2022 11:43 18,8 C 0,0 C 65 % 1024,8 hPa 0,0 l/m 0,0 kts (0 Bft) N 355 0,0 kts (0 Bft)
30.10.2022 11:42 18,8 C 0,0 C 65 % 1024,8 hPa 0,0 l/m 0,1 kts (0 Bft) N 355 1,0 kts (1 Bft)
30.10.2022 11:41 18,8 C 0,0 C 64 % 1024,8 hPa 0,0 l/m 0,0 kts (0 Bft) N 355 0,0 kts (0 Bft)
30.10.2022 11:40 18,8 C 0,0 C 64 % 1024,8 hPa 0,0 l/m 0,0 kts (0 Bft) N 355 0,0 kts (0 Bft)
30.10.2022 11:39 18,8 C 0,0 C 64 % 1024,9 hPa 0,0 l/m 0,1 kts (0 Bft) N 355 1,0 kts (1 Bft)
30.10.2022 11:38 18,8 C 0,0 C 65 % 1024,9 hPa 0,0 l/m 1,2 kts (1 Bft) N 355 2,1 kts (1 Bft)
30.10.2022 11:37 18,8 C 0,0 C 65 % 1024,9 hPa 0,0 l/m 1,7 kts (1 Bft) N 355 2,1 kts (1 Bft)
30.10.2022 11:36 18,8 C 0,0 C 65 % 1024,9 hPa 0,0 l/m 1,8 kts (1 Bft) N 355 2,1 kts (1 Bft)
30.10.2022 11:35 18,8 C 0,0 C 66 % 1024,9 hPa 0,0 l/m 1,8 kts (1 Bft) N 355 2,1 kts (1 Bft)
30.10.2022 11:34 18,8 C 0,0 C 67 % 1025,0 hPa 0,0 l/m 0,1 kts (0 Bft) N 355 1,0 kts (1 Bft)
30.10.2022 11:33 18,7 C 0,0 C 68 % 1025,0 hPa 0,0 l/m 0,0 kts (0 Bft) N 355 0,0 kts (0 Bft)
30.10.2022 11:32 18,7 C 0,0 C 69 % 1025,0 hPa 0,0 l/m 0,1 kts (0 Bft) N 355 1,0 kts (1 Bft)
30.10.2022 11:31 18,6 C 0,0 C 68 % 1025,0 hPa 0,0 l/m 0,0 kts (0 Bft) N 355 0,0 kts (0 Bft)
30.10.2022 11:30 18,6 C 0,0 C 66 % 1025,0 hPa 0,0 l/m 0,0 kts (0 Bft) N 355 0,0 kts (0 Bft)
30.10.2022 11:29 18,5 C 0,0 C 65 % 1025,1 hPa 0,0 l/m 0,1 kts (0 Bft) N 355 1,0 kts (1 Bft)
30.10.2022 11:28 18,5 C 0,0 C 66 % 1025,1 hPa 0,0 l/m 0,0 kts (0 Bft) N 355 0,0 kts (0 Bft)
30.10.2022 11:27 18,5 C 0,0 C 66 % 1025,1 hPa 0,0 l/m 0,0 kts (0 Bft) N 355 0,0 kts (0 Bft)
30.10.2022 11:26 18,4 C 0,0 C 67 % 1025,1 hPa 0,0 l/m 0,0 kts (0 Bft) N 355 0,0 kts (0 Bft)
30.10.2022 11:25 18,4 C 0,0 C 67 % 1025,2 hPa 0,0 l/m 0,0 kts (0 Bft) N 355 0,0 kts (0 Bft)
30.10.2022 11:24 18,4 C 0,0 C 67 % 1025,2 hPa 0,0 l/m 0,0 kts (0 Bft) N 355 0,0 kts (0 Bft)
30.10.2022 11:23 18,3 C 0,0 C 68 % 1025,2 hPa 0,0 l/m 0,0 kts (0 Bft) N 355 0,0 kts (0 Bft)
30.10.2022 11:22 18,2 C 0,0 C 69 % 1025,2 hPa 0,0 l/m 0,0 kts (0 Bft) N 355 0,0 kts (0 Bft)
30.10.2022 11:21 18,2 C 0,0 C 69 % 1025,2 hPa 0,0 l/m 0,1 kts (0 Bft) N 355 1,0 kts (1 Bft)
30.10.2022 11:20 18,1 C 0,0 C 69 % 1025,2 hPa 0,0 l/m 0,0 kts (0 Bft) N 355 0,0 kts (0 Bft)
30.10.2022 11:19 18,1 C 0,0 C 70 % 1025,2 hPa 0,0 l/m 0,0 kts (0 Bft) N 355 0,0 kts (0 Bft)
30.10.2022 11:18 17,9 C 0,0 C 70 % 1025,3 hPa 0,0 l/m 0,0 kts (0 Bft) N 355 0,0 kts (0 Bft)
30.10.2022 11:17 17,9 C 0,0 C 70 % 1025,2 hPa 0,0 l/m 0,0 kts (0 Bft) N 355 0,0 kts (0 Bft)
30.10.2022 11:16 17,8 C 0,0 C 70 % 1025,3 hPa 0,0 l/m 0,0 kts (0 Bft) N 355 0,0 kts (0 Bft)
30.10.2022 11:15 17,8 C 0,0 C 71 % 1025,3 hPa 0,0 l/m 0,0 kts (0 Bft) N 355 0,0 kts (0 Bft)
30.10.2022 11:14 17,7 C 0,0 C 71 % 1025,3 hPa 0,0 l/m 0,0 kts (0 Bft) N 355 0,0 kts (0 Bft)
30.10.2022 11:13 17,7 C 0,0 C 71 % 1025,4 hPa 0,0 l/m 0,1 kts (0 Bft) N 355 1,0 kts (1 Bft)
30.10.2022 11:12 17,6 C 0,0 C 71 % 1025,3 hPa 0,0 l/m 0,9 kts (1 Bft) N 355 2,1 kts (1 Bft)
30.10.2022 11:11 17,6 C 0,0 C 72 % 1025,4 hPa 0,0 l/m 0,0 kts (0 Bft) N 355 0,0 kts (0 Bft)
30.10.2022 11:10 17,5 C 0,0 C 72 % 1025,4 hPa 0,0 l/m 0,1 kts (0 Bft) N 355 1,0 kts (1 Bft)
30.10.2022 11:09 17,4 C 0,0 C 72 % 1025,4 hPa 0,0 l/m 0,8 kts (1 Bft) N 355 2,1 kts (1 Bft)
30.10.2022 11:08 17,4 C 0,0 C 71 % 1025,4 hPa 0,0 l/m 0,9 kts (1 Bft) N 355 2,1 kts (1 Bft)
30.10.2022 11:07 17,3 C 0,0 C 71 % 1025,4 hPa 0,0 l/m 0,0 kts (0 Bft) N 355 0,0 kts (0 Bft)
30.10.2022 11:06 17,3 C 0,0 C 71 % 1025,5 hPa 0,0 l/m 0,0 kts (0 Bft) N 355 0,0 kts (0 Bft)
30.10.2022 11:05 17,3 C 0,0 C 72 % 1025,4 hPa 0,0 l/m 0,1 kts (0 Bft) N 355 1,0 kts (1 Bft)
30.10.2022 11:04 17,2 C 0,0 C 72 % 1025,5 hPa 0,0 l/m 0,0 kts (0 Bft) N 355 0,0 kts (0 Bft)
30.10.2022 11:03 17,2 C 0,0 C 73 % 1025,5 hPa 0,0 l/m 0,0 kts (0 Bft) N 355 0,0 kts (0 Bft)
30.10.2022 11:02 17,1 C 0,0 C 72 % 1025,5 hPa 0,0 l/m 0,0 kts (0 Bft) N 355 0,0 kts (0 Bft)
30.10.2022 11:01 17,1 C 0,0 C 73 % 1025,5 hPa 0,0 l/m 0,0 kts (0 Bft) N 355 0,0 kts (0 Bft)
30.10.2022 11:00 17,0 C 0,0 C 73 % 1025,5 hPa 0,0 l/m 1,0 kts (1 Bft) N 355 2,1 kts (1 Bft)
_ Min-Zeit 06:24 00:00 11:39 11:55 - 00:10 - - 00:10
Minimum _ 10,2 C 0,0 C 64 % 1024,5 hPa - 0,0 kts (0 Bft) - - 0,0 kts (0 Bft)
_ Max-Zeit 12:00 00:00 02:37 00:06 06:39 00:07 - - 00:01
Maximum _ 19,1 C 0,0 C 94 % 1026,9 hPa 0,2 l/m 4,0 kts
N (2 Bft)
- - 5,2 kts
N (2 Bft)
Durchschnitt _ 12,9 C 0,0 C 87 % 1026,4 hPa #0,2 l/m 0,4 kts (0 Bft) N - 0,7 kts (1 Bft)